Flag for U.S.A. Weather past 2 weeks in Charleston, West Virginia, U.S.A.

Now
82 °F

Passing clouds.


Feels Like: 81 °F
Forecast: 65 / 85 °F
Wind: 6 mph from Northwest

Location: Yeager Airport

Current Time: Aug 1, 2015 at 7:08:15 PM

Latest Report: Aug 1, 2015 at 6:54 PM


Visibility: 10 mi

Pressure: 29.93 "Hg

Humidity: 40%

Dew point: 55 °F

Location of CharlestonLocation

Historic Weather in Charleston — Graph

°F

Charleston temperature yesterday

Maximum temperature yesterday: 86 °F (at 3:54 PM)
Minimum temperature yesterday: 62 °F (at 4:54 AM)
Average temperature yesterday: 74 °F

Past Weeks' High & Low Weather Summary

 TemperatureHumidityPressure
High93 °F (Jul 19, 12:54 PM)100% (Jul 19, 6:54 AM)30.05 "Hg (Jul 19, 6:54 AM)
Low59 °F (Jul 24, 6:54 AM)32% (Aug 1, 3:54 PM)29.73 "Hg (Jul 21, 6:54 AM)
Average76 °F77%29.94 "Hg
* Reported Jul 17 4:54 PM — Aug 1 4:54 PM, Charleston, Weather by CustomWeather, © 2015

Note: Actual official high and low records may vary slightly from our data, if they occured in-between our weather recording intervals... More about our weather records

Advertising

Charleston weather history for previous 24 hours

 ConditionsComfort  
Time TempWeatherWind HumidityBarometerVisibility
4:54 PM
Sat, Aug 1
83 °FScattered clouds.7 mph36%29.94 "Hg10 mi
3:54 PM84 °FScattered clouds.6 mph32%29.95 "Hg10 mi
2:54 PM84 °FScattered clouds.8 mph36%29.95 "Hg10 mi
1:54 PM83 °FScattered clouds.9 mph37%29.96 "Hg10 mi
12:54 PM82 °FScattered clouds.10 mph40%29.97 "Hg10 mi
11:54 AM81 °FPassing clouds.6 mph44%29.98 "Hg10 mi
10:54 AM78 °FPassing clouds.7 mph48%29.97 "Hg10 mi
9:54 AM75 °FPassing clouds.No wind62%29.98 "Hg10 mi
8:54 AM71 °FPassing clouds.5 mph73%29.97 "Hg10 mi
7:54 AM68 °FPassing clouds.6 mph82%29.96 "Hg10 mi
6:54 AM65 °FPassing clouds.3 mph91%29.95 "Hg10 mi
5:54 AM66 °FPassing clouds.5 mph90%29.93 "Hg10 mi
4:54 AM67 °FPassing clouds.No wind87%29.93 "Hg10 mi
3:54 AM67 °FOvercast.3 mph90%29.93 "Hg10 mi
2:54 AM66 °FPassing clouds.No wind93%29.94 "Hg10 mi
1:54 AM67 °FPassing clouds.No wind87%29.95 "Hg10 mi
12:54 AM67 °FClear.No wind90%29.96 "Hg10 mi
11:54 PM
Fri, Jul 31
68 °FClear.No wind84%29.95 "Hg10 mi
10:54 PM71 °FClear.No wind78%29.95 "Hg10 mi
9:54 PM73 °FPassing clouds.No wind74%29.95 "Hg10 mi
8:54 PM77 °FScattered clouds.3 mph60%29.94 "Hg10 mi
7:54 PM82 °FPassing clouds.5 mph48%29.93 "Hg10 mi
Weather by CustomWeather, © 2015

See weather overviewHow to use our weather pages